QPF
0.00 0.00 0.00 0.00 0.00 0.00 0.00 0.00 0.01 0.02 0.02 0.04 0.04 0.01 0.00 0.00 0.00 0.00 0.00 0.00 0.00 0.00 0.00 0.00 0.00 0.00 0.00 0.00 0.00 0.00 0.00 0.00 0.00 0.00 0.00 0.00 0.03 0.04 0.04 0.01 0.00 0.00 0.00
0.00 0.00 0.00 0.00 0.00 0.00 0.00 0.00 0.00 0.00 0.01 0.01 0.01 0.01 0.00 0.00 0.00 0.00 0.00 0.00 0.00 0.00 0.00 0.00 0.00 0.00 0.00 0.00 0.00 0.00 0.00 0.00 0.00 0.00 0.00 0.00 0.02 0.03 0.03 0.01 0.00 0.00 0.00
0.00 0.00 0.00 0.00 0.00 0.00 0.00 0.00 0.00 0.00 0.00 0.00 0.00 0.00 0.00 0.00 0.00 0.00 0.00 0.00 0.00 0.00 0.00 0.00 0.00 0.00 0.00 0.00 0.00 0.00 0.00 0.00 0.00 0.00 0.00 0.00 0.02 0.02 0.01 0.00 0.00 0.00 0.00
0.00 0.00 0.00 0.00 0.00 0.00 0.00 0.00 0.00 0.00 0.00 0.00 0.00 0.00 0.00 0.00 0.00 0.00 0.00 0.00 0.00 0.00 0.00 0.00 0.00 0.00 0.00 0.00 0.00 0.00 0.00 0.00 0.00 0.00 0.00 0.00 0.00 0.00 0.00 0.00 0.00 0.00 0.00
0.00 0.00 0.00 0.00 0.00 0.00 0.00 0.00 0.00 0.00 0.00 0.00 0.00 0.00 0.00 0.00 0.00 0.00 0.00 0.00 0.00 0.00 0.01 0.00 0.00 0.00 0.00 0.00 0.00 0.00 0.00 0.00 0.01 0.01 0.00 0.00 0.00 0.00 0.00 0.02 0.00 0.00 0.00
0.00 0.00 0.00 0.00 0.00 0.00 0.00 0.00 0.00 0.00 0.00 0.00 0.00 0.00 0.00 0.00 0.00 0.00 0.00 0.00 0.01 0.02 0.01 0.00 0.00 0.00 0.00 0.00 0.00 0.00 0.00 0.00 0.01 0.00 0.00 0.01 0.01 0.00 0.00 0.00 0.01 0.00 0.00
0.00 0.00 0.00 0.00 0.00 0.00 0.00 0.00 0.00 0.00 0.00 0.00 0.00 0.00 0.00 0.00 0.00 0.00 0.00 0.00 0.00 0.00 0.00 0.00 0.00 0.00 0.00 0.00 0.00 0.00 0.00 0.00 0.00 0.00 0.00 0.00 0.00 0.03 0.00 0.00 0.00 0.00 0.00
0.00 0.00 0.00 0.00 0.01 0.00 0.00 0.00 0.00 0.01 0.00 0.00 0.00 0.00 0.00 0.00 0.00 0.00 0.00 0.00 0.01 0.01 0.00 0.00 0.00 0.00 0.00 0.00 0.00 0.00 0.00 0.00 0.00 0.00 0.00 0.00 0.01 0.04 0.01 0.00 0.00 0.00 0.00
0.00 0.00 0.00 0.00 0.00 0.01 0.00 0.00 0.01 0.01 0.00 0.00 0.00 0.00 0.00 0.00 0.00 0.00 0.00 0.00 0.01 0.00 0.00 0.03 0.00 0.00 0.00 0.00 0.00 0.00 0.00 0.00 0.00 0.00 0.00 0.00 0.02 0.03 0.06 0.00 0.00 0.00 0.00
0.00 0.00 0.00 0.00 0.00 0.00 0.00 0.00 0.00 0.00 0.01 0.00 0.00 0.00 0.00 0.02 0.03 0.02 0.01 0.02 0.00 0.00 0.01 0.00 0.00 0.03 0.00 0.00 0.00 0.01 0.02 0.00 0.00 0.00 0.00 0.00 0.00 0.02 0.13 0.06 0.01 0.00 0.00
0.02 0.01 0.00 0.00 0.00 0.00 0.01 0.01 0.01 0.00 0.03 0.01 0.01 0.00 0.01 0.01 0.01 0.01 0.03 0.01 0.00 0.02 0.01 0.00 0.05 0.07 0.00 0.02 0.02 0.03 0.02 0.00 0.00 0.00 0.00 0.00 0.00 0.00 0.02 0.02 0.04 0.06 0.07
0.00 0.00 0.00 0.00 0.04 0.00 0.00 0.00 0.00 0.01 0.00 0.01 0.04 0.01 0.00 0.01 0.00 0.02 0.04 0.01 0.05 0.04 0.01 0.11 0.17 0.18 0.03 0.00 0.01 0.00 0.00 0.00 0.00 0.00 0.00 0.00 0.00 0.00 0.00 0.00 0.00 0.05 0.05
0.00 0.00 0.00 0.00 0.00 0.00 0.00 0.00 0.01 0.00 0.00 0.00 0.01 0.00 0.00 0.00 0.00 0.02 0.01 0.04 0.11 0.09 0.10 0.10 0.08 0.07 0.00 0.00 0.00 0.00 0.00 0.00 0.00 0.00 0.00 0.00 0.00 0.00 0.00 0.00 0.00 0.03 0.03
0.00 0.00 0.00 0.00 0.00 0.00 0.00 0.01 0.04 0.00 0.00 0.00 0.00 0.00 0.00 0.00 0.00 0.00 0.00 0.07 0.11 0.03 0.02 0.02 0.05 0.07 0.00 0.00 0.00 0.00 0.00 0.00 0.00 0.00 0.00 0.00 0.00 0.00 0.00 0.00 0.00 0.01 0.02
0.00 0.00 0.00 0.00 0.00 0.00 0.00 0.00 0.00 0.00 0.00 0.00 0.00 0.00 0.00 0.00 0.00 0.00 0.00 0.01 0.05 0.00 0.00 0.05 0.13 0.04 0.00 0.00 0.00 0.00 0.00 0.00 0.00 0.00 0.00 0.00 0.00 0.00 0.00 0.00 0.00 0.02 0.02
0.00 0.00 0.00 0.00 0.00 0.00 0.00 0.00 0.00 0.00 0.00 0.00 0.00 0.00 0.00 0.00 0.00 0.00 0.00 0.00 0.00 0.00 0.00 0.00 0.00 0.00 0.00 0.00 0.00 0.00 0.00 0.00 0.00 0.00 0.00 0.00 0.00 0.00 0.00 0.00 0.00 0.01 0.00
0.00 0.00 0.00 0.00 0.00 0.00 0.00 0.00 0.00 0.00 0.00 0.00 0.00 0.00 0.00 0.00 0.00 0.00 0.00 0.00 0.00 0.00 0.00 0.00 0.00 0.00 0.00 0.00 0.00 0.00 0.00 0.00 0.00 0.00 0.00 0.00 0.00 0.00 0.00 0.00 0.00 0.01 0.01
0.00 0.00 0.00 0.00 0.00 0.00 0.00 0.00 0.00 0.00 0.00 0.00 0.00 0.00 0.00 0.00 0.00 0.00 0.00 0.00 0.00 0.00 0.00 0.00 0.00 0.00 0.00 0.00 0.00 0.00 0.00 0.00 0.00 0.00 0.00 0.00 0.00 0.00 0.00 0.00 0.00 0.00 0.00
0.00 0.00 0.00 0.00 0.00 0.00 0.00 0.00 0.00 0.00 0.00 0.00 0.00 0.00 0.00 0.00 0.00 0.00 0.00 0.00 0.00 0.00 0.00 0.00 0.00 0.00 0.00 0.00 0.00 0.00 0.00 0.00 0.00 0.00 0.00 0.00 0.00 0.00 0.00 0.00 0.00 0.00 0.00
0.00 0.00 0.00 0.00 0.00 0.00 0.00 0.00 0.00 0.00 0.00 0.00 0.00 0.00 0.00 0.00 0.00 0.00 0.00 0.00 0.00 0.00 0.00 0.00 0.00 0.00 0.00 0.00 0.00 0.00 0.00 0.00 0.00 0.00 0.00 0.00 0.00 0.00 0.00 0.00 0.00 0.00 0.00
0.01 0.00 0.00 0.00 0.00 0.00 0.00 0.00 0.00 0.00 0.00 0.00 0.01 0.00 0.00 0.00 0.00 0.00 0.00 0.00 0.00 0.00 0.00 0.00 0.00 0.00 0.00 0.00 0.00 0.00 0.00 0.00 0.00 0.00 0.00 0.00 0.00 0.00 0.00 0.00 0.00 0.00 0.00
0.00 0.00 0.00 0.00 0.00 0.00 0.00 0.00 0.00 0.00 0.00 0.00 0.00 0.00 0.00 0.00 0.00 0.00 0.00 0.00 0.00 0.00 0.00 0.00 0.00 0.00 0.00 0.00 0.00 0.00 0.00 0.00 0.00 0.00 0.00 0.00 0.00 0.00 0.00 0.00 0.00 0.00 0.00
0.00 0.00 0.00 0.00 0.00 0.00 0.00 0.00 0.00 0.00 0.00 0.00 0.00 0.00 0.00 0.00 0.00 0.00 0.00 0.00 0.00 0.00 0.00 0.00 0.00 0.01 0.00 0.00 0.00 0.00 0.03 0.04 0.00 0.00 0.00 0.00 0.00 0.00 0.00 0.00 0.00 0.00 0.00
0.00 0.00 0.00 0.00 0.00 0.00 0.00 0.00 0.00 0.00 0.00 0.00 0.00 0.00 0.00 0.00 0.03 0.01 0.00 0.00 0.00 0.00 0.00 0.00 0.00 0.00 0.00 0.00 0.04 0.00 0.00 0.01 0.00 0.03 0.00 0.00 0.00 0.00 0.00 0.00 0.00 0.00 0.00
0.02 0.01 0.00 0.00 0.00 0.00 0.00 0.00 0.00 0.00 0.00 0.00 0.00 0.00 0.03 0.00 0.00 0.01 0.00 0.00 0.00 0.00 0.00 0.00 0.00 0.00 0.00 0.00 0.03 0.00 0.00 0.00 0.00 0.00 0.00 0.00 0.00 0.00 0.00 0.00 0.00 0.00 0.00
0.00 0.02 0.02 0.00 0.00 0.00 0.00 0.00 0.00 0.00 0.00 0.00 0.01 0.02 0.00 0.00 0.00 0.00 0.01 0.00 0.03 0.01 0.00 0.00 0.00 0.00 0.00 0.00 0.00 0.00 0.00 0.01 0.01 0.00 0.00 0.00 0.00 0.00 0.00 0.00 0.00 0.00 0.00
MSLP
1015.70 1015.95 1016.53 1016.87 1016.88 1017.07 1017.30 1017.54 1017.64 1017.74 1018.22 1018.49 1018.61 1018.90 1019.08 1019.18 1019.27 1019.30 1019.31 1019.31 1019.32 1019.24 1019.29 1019.29 1019.37 1019.35 1019.37 1019.51 1019.52 1019.62 1019.80 1019.99 1020.14 1020.21 1020.52 1020.70 1020.94 1021.00 1021.04 1021.07 1020.91 1021.03 1021.51
1015.19 1015.82 1016.42 1016.79 1016.88 1017.11 1017.47 1017.71 1017.78 1018.04 1018.39 1018.66 1018.83 1019.10 1019.24 1019.33 1019.45 1019.47 1019.40 1019.41 1019.42 1019.38 1019.36 1019.42 1019.45 1019.60 1019.67 1019.80 1019.86 1019.89 1020.07 1020.15 1020.33 1020.47 1020.63 1020.82 1021.03 1021.18 1021.30 1021.42 1021.19 1021.52 1021.70
1015.29 1015.83 1016.37 1016.76 1016.87 1017.19 1017.63 1017.82 1018.01 1018.33 1018.59 1018.84 1019.04 1019.24 1019.36 1019.45 1019.52 1019.57 1019.46 1019.54 1019.60 1019.52 1019.54 1019.52 1019.51 1019.65 1019.75 1019.82 1019.93 1020.10 1020.35 1020.44 1020.61 1020.66 1020.78 1020.51 1020.85 1021.32 1021.41 1021.63 1021.69 1021.85 1021.92
1015.18 1015.76 1016.33 1016.92 1017.02 1017.30 1017.63 1017.90 1018.23 1018.55 1018.85 1019.02 1019.19 1019.43 1019.52 1019.57 1019.61 1019.71 1019.72 1019.78 1019.81 1019.77 1019.66 1019.67 1019.63 1019.66 1019.82 1019.86 1019.98 1020.21 1020.43 1020.57 1020.73 1020.90 1020.74 1020.86 1020.89 1021.52 1021.62 1021.83 1022.04 1022.06 1022.18
1015.43 1015.88 1016.40 1016.99 1017.15 1017.46 1017.78 1018.02 1018.43 1018.75 1019.10 1019.30 1019.41 1019.60 1019.65 1019.75 1019.86 1019.96 1019.99 1019.88 1019.87 1019.85 1019.82 1019.86 1019.97 1020.00 1019.95 1019.95 1020.07 1020.29 1020.48 1020.62 1020.92 1020.92 1020.98 1021.26 1021.18 1021.59 1021.78 1022.01 1022.16 1022.27 1022.34
1015.61 1015.94 1016.74 1017.14 1017.30 1017.51 1017.88 1018.22 1018.57 1018.81 1019.19 1019.40 1019.52 1019.71 1019.90 1019.88 1019.96 1020.08 1020.09 1019.98 1019.88 1019.95 1019.98 1019.99 1020.07 1020.16 1020.20 1020.18 1020.20 1020.36 1020.59 1020.62 1020.79 1020.77 1021.03 1021.48 1021.48 1021.65 1021.93 1022.06 1022.19 1022.42 1022.67
1015.81 1016.09 1016.61 1017.16 1017.44 1017.64 1017.94 1018.42 1018.63 1018.83 1019.12 1019.38 1019.53 1019.81 1019.90 1020.00 1020.08 1020.21 1020.26 1020.24 1020.12 1020.14 1020.24 1020.25 1020.20 1020.25 1020.26 1020.32 1020.37 1020.36 1020.48 1020.64 1020.78 1021.02 1021.18 1021.37 1021.57 1021.90 1021.90 1022.08 1022.20 1022.47 1022.77
1015.87 1016.16 1016.59 1017.17 1017.46 1017.81 1018.02 1018.49 1018.75 1018.87 1019.09 1019.36 1019.60 1019.74 1019.87 1020.04 1020.17 1020.34 1020.36 1020.31 1020.24 1020.21 1020.27 1020.28 1020.26 1020.35 1020.43 1020.45 1020.44 1020.43 1020.47 1020.61 1020.76 1020.94 1021.14 1021.28 1021.61 1021.86 1021.91 1022.05 1022.23 1022.35 1022.68
1016.09 1016.38 1016.74 1016.98 1017.46 1017.85 1018.11 1018.45 1018.76 1018.99 1019.21 1019.43 1019.65 1019.73 1019.87 1020.09 1020.22 1020.28 1020.26 1020.25 1020.24 1020.17 1020.17 1020.27 1020.33 1020.36 1020.45 1020.55 1020.56 1020.58 1020.52 1020.56 1020.55 1020.73 1020.90 1021.21 1021.76 1021.94 1021.93 1022.11 1022.26 1022.44 1022.68
1016.57 1016.75 1016.76 1016.98 1017.22 1017.65 1018.03 1018.52 1018.80 1019.06 1019.21 1019.40 1019.57 1019.76 1019.92 1020.09 1020.11 1020.11 1020.20 1020.31 1020.24 1020.05 1020.11 1020.20 1020.31 1020.36 1020.38 1020.46 1020.52 1020.56 1020.56 1020.55 1020.47 1020.68 1020.92 1020.85 1021.66 1021.86 1022.04 1022.23 1022.37 1022.44 1022.64
1016.98 1017.01 1016.92 1017.01 1017.46 1017.89 1018.09 1018.41 1018.79 1018.99 1019.30 1019.41 1019.57 1019.66 1019.77 1019.71 1019.86 1020.07 1020.05 1020.15 1019.94 1019.90 1020.05 1020.13 1020.24 1020.48 1020.52 1020.52 1020.56 1020.59 1020.59 1020.18 1020.25 1020.34 1020.43 1021.01 1021.48 1021.75 1021.85 1022.16 1022.34 1022.45 1022.46
1016.66 1017.01 1017.11 1017.12 1017.50 1017.84 1018.02 1018.34 1018.66 1018.82 1018.91 1019.09 1019.56 1019.51 1019.72 1019.96 1019.92 1020.08 1019.98 1019.97 1019.96 1019.90 1020.08 1020.14 1020.39 1020.54 1020.65 1020.42 1020.36 1020.67 1020.40 1020.31 1020.20 1020.20 1020.22 1020.90 1021.17 1021.41 1021.65 1021.97 1022.28 1022.30 1022.26
1016.41 1016.80 1017.40 1017.42 1017.63 1017.71 1017.93 1018.26 1018.53 1018.74 1018.95 1019.27 1019.59 1019.69 1019.81 1019.91 1019.90 1020.03 1019.82 1019.81 1020.00 1020.25 1020.35 1020.26 1020.30 1020.36 1020.40 1020.45 1020.50 1020.46 1020.44 1020.36 1020.23 1020.14 1020.13 1020.77 1020.89 1021.11 1021.41 1021.75 1021.93 1022.03 1022.18
1016.35 1016.63 1017.13 1017.59 1017.55 1017.78 1017.99 1018.18 1018.65 1018.72 1018.96 1019.21 1019.52 1019.82 1019.80 1019.82 1019.75 1019.95 1019.81 1019.99 1020.14 1020.41 1020.31 1020.08 1020.21 1020.32 1020.51 1020.65 1020.57 1020.40 1020.39 1020.38 1020.26 1020.12 1020.12 1020.63 1020.67 1020.81 1020.97 1021.19 1021.53 1021.76 1021.87
1016.08 1016.37 1016.79 1017.20 1017.53 1017.90 1018.14 1018.12 1018.36 1018.60 1018.89 1019.04 1019.50 1019.67 1019.77 1019.80 1019.66 1019.83 1019.73 1019.73 1019.90 1020.12 1020.19 1020.05 1020.10 1020.23 1020.37 1020.43 1020.34 1020.36 1020.42 1020.23 1020.32 1020.19 1020.06 1020.44 1020.53 1020.67 1020.81 1020.87 1021.03 1021.28 1021.53
1015.71 1015.98 1016.53 1017.13 1017.47 1017.75 1018.04 1018.17 1018.26 1018.48 1018.67 1019.05 1019.31 1019.49 1019.75 1019.76 1019.71 1019.56 1019.48 1019.43 1019.68 1019.65 1020.02 1020.35 1020.29 1020.15 1020.21 1020.23 1020.14 1020.10 1020.19 1020.06 1020.12 1020.13 1020.00 1020.04 1020.55 1020.63 1020.64 1020.72 1020.86 1021.06 1021.25
1015.47 1015.87 1016.30 1016.83 1017.26 1017.63 1017.81 1018.10 1018.24 1018.40 1018.51 1018.83 1019.03 1019.39 1019.52 1019.67 1019.68 1019.64 1019.41 1019.29 1019.20 1019.34 1019.79 1019.97 1020.25 1020.22 1020.06 1020.11 1020.25 1020.07 1020.08 1020.09 1019.82 1019.85 1019.84 1019.70 1019.77 1020.21 1020.31 1020.46 1020.66 1020.88 1021.09
1015.29 1015.70 1016.04 1016.43 1016.90 1017.35 1017.47 1017.85 1018.08 1018.20 1018.45 1018.68 1018.89 1019.05 1019.23 1019.39 1019.56 1019.60 1019.30 1019.19 1019.12 1019.51 1019.34 1019.52 1020.08 1019.80 1019.84 1019.86 1019.82 1019.78 1019.78 1019.82 1019.78 1019.72 1019.56 1019.51 1019.47 1019.21 1020.03 1020.25 1020.44 1020.57 1020.72
1014.93 1015.64 1015.92 1016.21 1016.58 1017.03 1017.43 1017.68 1017.94 1018.08 1018.33 1018.54 1018.77 1018.89 1019.01 1019.19 1019.33 1019.45 1019.22 1019.15 1019.38 1019.32 1019.50 1019.40 1019.56 1019.79 1019.79 1019.59 1019.69 1019.65 1019.55 1019.56 1019.35 1019.26 1019.28 1019.31 1019.36 1019.46 1019.31 1019.87 1020.18 1020.33 1020.40
1014.57 1015.19 1015.88 1016.14 1016.46 1016.95 1017.36 1017.69 1017.73 1017.88 1018.06 1018.36 1018.51 1018.66 1018.91 1019.02 1019.26 1019.44 1019.23 1019.29 1019.40 1019.19 1019.43 1019.38 1019.53 1019.72 1019.77 1019.60 1019.23 1019.03 1019.22 1019.20 1019.17 1019.05 1018.99 1019.02 1019.14 1019.30 1019.31 1019.54 1019.54 1019.51 1020.01
1014.16 1014.68 1015.22 1015.80 1016.07 1016.68 1017.11 1017.38 1017.61 1017.64 1017.85 1018.09 1018.29 1018.48 1018.72 1018.87 1019.09 1019.31 1019.16 1019.14 1019.29 1019.24 1019.29 1019.38 1019.33 1019.26 1019.11 1019.52 1019.29 1018.88 1018.83 1018.85 1018.73 1018.79 1018.70 1018.70 1018.83 1018.83 1018.94 1019.09 1019.20 1019.09 1019.02
1013.22 1013.86 1014.55 1015.12 1015.73 1016.23 1016.58 1016.95 1017.24 1017.48 1017.62 1017.68 1017.76 1018.10 1018.48 1018.69 1018.85 1019.08 1019.14 1018.97 1018.99 1019.06 1019.24 1019.34 1019.39 1019.07 1019.11 1019.32 1019.11 1018.89 1018.15 1018.24 1018.21 1018.31 1018.46 1018.47 1018.57 1018.51 1018.58 1018.68 1018.77 1018.84 1018.91
1012.47 1013.13 1013.74 1014.36 1015.02 1015.77 1016.13 1016.72 1017.22 1017.45 1017.67 1017.66 1017.78 1017.87 1018.00 1018.41 1018.50 1018.76 1018.91 1018.93 1018.96 1019.00 1018.92 1019.10 1019.15 1019.24 1018.86 1019.10 1019.39 1019.11 1018.29 1017.92 1017.85 1017.86 1018.00 1018.11 1018.28 1018.26 1018.15 1018.17 1018.30 1018.38 1018.61
1011.82 1012.72 1013.32 1013.95 1014.70 1015.33 1015.94 1016.38 1016.59 1016.67 1016.73 1016.94 1017.28 1017.52 1017.72 1018.10 1018.24 1018.38 1018.54 1018.62 1018.79 1018.63 1018.86 1018.85 1018.87 1018.92 1019.11 1018.75 1019.11 1018.98 1019.10 1018.84 1017.99 1017.48 1017.53 1017.62 1017.86 1017.77 1017.73 1017.62 1017.56 1017.94 1018.11
1011.56 1012.31 1012.95 1013.66 1014.26 1014.89 1015.54 1015.86 1016.37 1016.60 1016.59 1016.88 1017.20 1017.42 1017.61 1017.73 1017.94 1017.96 1018.16 1018.21 1018.18 1018.21 1018.39 1018.60 1018.72 1018.82 1018.76 1018.74 1018.66 1018.51 1018.70 1018.48 1018.52 1017.96 1017.21 1017.29 1017.36 1017.42 1017.42 1017.36 1017.15 1017.31 1017.64
1011.11 1011.81 1012.45 1013.17 1013.70 1014.43 1015.02 1015.53 1015.98 1016.26 1016.53 1016.77 1016.97 1017.03 1017.13 1017.31 1017.48 1017.58 1017.56 1017.74 1017.73 1017.70 1017.93 1018.07 1018.37 1018.48 1018.55 1018.63 1018.58 1018.39 1018.20 1018.14 1018.03 1017.86 1017.60 1017.41 1017.18 1017.16 1017.21 1017.10 1017.02 1017.03 1017.25
Thickness
5772 5770 5767 5765 5765 5764 5761 5758 5757 5754 5751 5748 5748 5744 5741 5739 5738 5737 5737 5737 5739 5741 5740 5739 5739 5740 5739 5738 5738 5737 5736 5735 5735 5733 5731 5729 5728 5727 5726 5726 5727 5726 5722
5777 5772 5768 5766 5767 5764 5761 5758 5757 5753 5750 5748 5747 5743 5740 5739 5738 5736 5737 5737 5738 5739 5739 5738 5738 5736 5735 5736 5736 5736 5734 5735 5733 5732 5730 5728 5728 5727 5725 5724 5726 5724 5723
5776 5772 5769 5768 5768 5764 5761 5759 5756 5752 5749 5748 5746 5743 5742 5741 5738 5736 5737 5736 5736 5738 5738 5740 5739 5737 5737 5737 5737 5735 5733 5731 5729 5729 5729 5731 5730 5727 5725 5724 5724 5722 5722
5776 5772 5769 5767 5768 5765 5763 5760 5756 5751 5748 5747 5746 5743 5742 5742 5740 5737 5736 5735 5735 5736 5738 5738 5739 5739 5738 5739 5738 5735 5734 5731 5729 5728 5730 5729 5730 5726 5725 5724 5723 5723 5722
5775 5771 5768 5766 5767 5765 5763 5762 5756 5752 5748 5746 5746 5744 5744 5743 5740 5737 5736 5736 5736 5736 5737 5737 5737 5737 5738 5739 5738 5736 5734 5733 5729 5729 5730 5727 5727 5725 5725 5724 5724 5724 5723
5774 5771 5767 5765 5766 5766 5764 5761 5757 5753 5750 5748 5748 5745 5743 5743 5742 5739 5739 5738 5738 5738 5738 5739 5738 5736 5737 5738 5739 5737 5734 5733 5732 5733 5730 5726 5726 5725 5724 5724 5724 5723 5721
5773 5771 5768 5765 5765 5765 5764 5760 5758 5755 5752 5751 5750 5747 5746 5744 5742 5740 5738 5737 5737 5736 5737 5737 5738 5738 5737 5737 5738 5739 5738 5735 5734 5732 5730 5729 5728 5725 5725 5723 5724 5723 5721
5772 5770 5769 5766 5765 5764 5763 5760 5758 5756 5754 5753 5751 5750 5749 5746 5744 5741 5739 5737 5737 5737 5737 5738 5739 5739 5739 5738 5738 5739 5739 5738 5736 5734 5732 5731 5730 5729 5726 5725 5724 5724 5723
5767 5767 5767 5766 5765 5764 5761 5760 5759 5756 5755 5753 5752 5751 5750 5747 5745 5743 5741 5740 5740 5740 5740 5741 5741 5740 5740 5739 5740 5739 5740 5740 5740 5738 5736 5734 5731 5729 5728 5726 5725 5724 5723
5763 5763 5765 5765 5766 5765 5762 5760 5759 5757 5756 5755 5753 5752 5750 5748 5746 5745 5744 5743 5743 5744 5744 5744 5744 5744 5744 5743 5742 5741 5742 5741 5742 5740 5738 5738 5733 5730 5728 5726 5724 5724 5723
5759 5761 5762 5763 5762 5763 5762 5761 5760 5758 5756 5757 5754 5754 5752 5751 5749 5747 5748 5747 5747 5747 5747 5747 5746 5746 5745 5745 5744 5743 5744 5746 5744 5744 5743 5740 5737 5733 5731 5728 5726 5725 5726
5759 5758 5759 5760 5761 5762 5763 5762 5761 5760 5759 5759 5756 5756 5754 5752 5751 5750 5751 5751 5750 5750 5749 5749 5747 5746 5745 5747 5746 5744 5746 5747 5747 5746 5746 5743 5741 5738 5734 5731 5728 5728 5728
5762 5759 5754 5755 5758 5762 5764 5763 5763 5761 5759 5759 5758 5756 5755 5753 5754 5754 5754 5753 5751 5747 5749 5749 5748 5748 5748 5747 5747 5747 5747 5748 5748 5748 5749 5746 5745 5743 5739 5737 5735 5732 5732
5762 5760 5755 5752 5758 5761 5763 5764 5763 5762 5761 5760 5759 5758 5757 5756 5757 5757 5757 5754 5752 5748 5749 5750 5749 5749 5749 5748 5748 5749 5750 5750 5750 5750 5750 5748 5748 5748 5746 5743 5740 5737 5737
5765 5765 5762 5758 5759 5759 5761 5764 5765 5765 5762 5761 5760 5760 5759 5758 5760 5760 5760 5758 5755 5752 5753 5753 5753 5751 5751 5752 5752 5752 5751 5753 5752 5752 5753 5752 5751 5750 5748 5748 5745 5742 5741
5772 5772 5770 5765 5763 5762 5763 5765 5766 5766 5765 5763 5762 5762 5761 5761 5762 5764 5765 5764 5761 5757 5757 5754 5755 5755 5754 5754 5756 5756 5755 5756 5755 5755 5756 5756 5753 5752 5751 5750 5747 5745 5743
5776 5776 5774 5770 5767 5767 5767 5766 5766 5767 5767 5765 5765 5764 5764 5763 5764 5766 5767 5768 5768 5765 5762 5760 5758 5757 5756 5756 5757 5758 5758 5758 5760 5760 5760 5761 5760 5758 5756 5753 5751 5748 5747
5778 5775 5777 5777 5773 5770 5770 5769 5768 5768 5768 5767 5767 5767 5767 5766 5766 5768 5770 5770 5770 5768 5767 5765 5761 5763 5763 5763 5764 5764 5763 5762 5763 5763 5765 5765 5765 5766 5761 5759 5756 5754 5753
5783 5777 5778 5779 5776 5773 5770 5771 5770 5769 5769 5768 5769 5768 5768 5768 5768 5769 5771 5772 5770 5770 5769 5769 5768 5764 5764 5767 5765 5767 5767 5767 5768 5769 5769 5769 5768 5767 5768 5765 5762 5760 5759
5788 5785 5779 5779 5777 5773 5771 5769 5770 5770 5770 5769 5770 5770 5769 5769 5769 5768 5771 5771 5771 5772 5771 5771 5770 5769 5767 5768 5770 5773 5772 5771 5770 5772 5773 5773 5772 5771 5770 5768 5768 5768 5765
5792 5788 5785 5781 5781 5776 5772 5769 5769 5768 5770 5771 5770 5770 5770 5769 5769 5769 5770 5772 5772 5772 5772 5772 5774 5773 5775 5772 5770 5773 5775 5776 5776 5776 5776 5777 5776 5775 5774 5773 5772 5772 5772
5798 5795 5790 5786 5783 5779 5776 5773 5772 5772 5772 5772 5772 5771 5769 5768 5768 5767 5769 5771 5772 5774 5772 5772 5773 5774 5774 5775 5771 5770 5770 5775 5779 5780 5779 5779 5779 5779 5778 5777 5776 5775 5774
5802 5798 5795 5791 5787 5781 5778 5775 5771 5771 5768 5769 5770 5772 5771 5769 5768 5767 5767 5768 5769 5771 5773 5773 5775 5773 5772 5773 5772 5770 5767 5765 5774 5782 5782 5781 5780 5780 5781 5781 5780 5778 5776
5808 5802 5797 5793 5787 5783 5779 5775 5772 5770 5769 5771 5772 5773 5771 5769 5769 5768 5768 5768 5768 5771 5771 5773 5776 5776 5773 5771 5771 5775 5774 5772 5769 5767 5782 5783 5782 5783 5784 5784 5783 5780 5779
5811 5805 5800 5793 5788 5784 5780 5778 5772 5768 5770 5770 5768 5767 5767 5767 5767 5769 5769 5770 5771 5772 5773 5773 5775 5774 5776 5773 5773 5774 5772 5775 5773 5769 5769 5775 5782 5784 5785 5784 5785 5783 5780
5815 5808 5803 5795 5790 5785 5780 5776 5771 5768 5765 5764 5764 5764 5767 5770 5770 5769 5770 5771 5771 5774 5775 5775 5775 5775 5775 5774 5774 5775 5774 5769 5770 5771 5768 5771 5773 5779 5783 5785 5785 5784 5783